This is the latest recevied weather packets stored in our database for station/object KJ6APE. If no packets are shown the sender has not sent any weather packets the latest 10 day(s).
| Time | Temp. | Humidity | Pressure | Rain* | Wind** | Luminosity | Snow |
|---|---|---|---|---|---|---|---|
| 1777862432 | 15.56° C | 64% | 1013.4 hPa | 0 mm | - | 21 W/m² | - |
| 1777862128 | 16.11° C | 64% | 1013.3 hPa | 0 mm | - | 29 W/m² | - |
| 1777861824 | 16.11° C | 63% | 1013.3 hPa | 0 mm | - | 36 W/m² | - |
| 1777861520 | 16.11° C | 63% | 1013.1 hPa | 0 mm | - | 45 W/m² | - |
| 1777861217 | 16.11° C | 63% | 1013.2 hPa | 0 mm | - | 47 W/m² | - |
| 1777860915 | 16.11° C | 62% | 1013 hPa | 0 mm | - | 53 W/m² | - |
| 1777860611 | 16.11° C | 62% | 1013 hPa | 0 mm | - | 63 W/m² | - |
| 1777860308 | 16.67° C | 61% | 1012.8 hPa | 0 mm | - | 83 W/m² | - |
| 1777860005 | 16.67° C | 60% | 1013 hPa | 0 mm | - | 88 W/m² | - |
| 1777859701 | 16.67° C | 60% | 1013.1 hPa | 0 mm | - | 98 W/m² | - |
| 1777859397 | 17.22° C | 59% | 1012.9 hPa | 0 mm | - | 118 W/m² | - |
| 1777859093 | 17.78° C | 58% | 1012.9 hPa | 0 mm | - | 144 W/m² | - |
| 1777858790 | 17.22° C | 58% | 1012.9 hPa | 0 mm | - | 163 W/m² | - |
| 1777858489 | 17.22° C | 60% | 1013 hPa | 0 mm | - | 210 W/m² | - |
| 1777858184 | 16.67° C | 60% | 1013 hPa | 0 mm | - | 133 W/m² | - |
| 1777857883 | 16.67° C | 61% | 1013.1 hPa | 0 mm | - | 275 W/m² | - |
| 1777857580 | 16.67° C | 61% | 1013 hPa | 0 mm | - | 145 W/m² | - |
| 1777857276 | 16.67° C | 60% | 1013.3 hPa | 0 mm | - | 176 W/m² | - |
| 1777856972 | 16.67° C | 60% | 1013.2 hPa | 0 mm | - | 134 W/m² | - |
| 1777856668 | 16.67° C | 60% | 1013.1 hPa | 0 mm | - | 186 W/m² | - |
| 1777856365 | 16.67° C | 61% | 1013 hPa | 0 mm | - | 152 W/m² | - |
| 1777856061 | 17.22° C | 60% | 1013.2 hPa | 0 mm | - | 167 W/m² | - |
| 1777855759 | 17.22° C | 59% | 1013.2 hPa | 0 mm | - | 173 W/m² | - |
| 1777855457 | 17.22° C | 58% | 1013.1 hPa | 0 mm | - | 215 W/m² | - |
| 1777855153 | 17.78° C | 57% | 1013.1 hPa | 0 mm | - | 256 W/m² | - |
* Rain latest hour (hover to see other rain measurements)
** Current wind speed in m/s (hover to see current wind gust speed)